Weather in Kolodeznaya

Russia / Lipetsk Oblast     52°25′43″N   38°52′53″E
temp.,
°C
wind,
m/s
gust,
m/s
humid.,
%
clouds,
%
prec.,
mm/h
press.,
hPa
HPBL,
m
6 may, thu
thu600:00+8s4118368 0.0 1013186
03:00+10s41172100 0.0 1013286
06:00+9s41177100 0.0 1012288
09:00+12s61269100 0.0 1012572
12:00+15s81257100 0.0 10111584
15:00+17ssw8135397 0.0 10111876
18:00+16ssw61159100 0.0 1010972
21:00+13wsw61072100 0.1 1010432
7 may, fri
fri700:00+10nw5790100 0.8 1011465
03:00+8nw3693100 2.8 1012438
06:00+7e1189100 5.4 1013125
09:00+11wnw346923 5.4 10141027
12:00+13wnw34445 0.0 10151827
15:00+14w22393 0.0 10151823
18:00+14ssw2247100 0.0 10151420
21:00+10se355779 0.0 101664
8 may, sat
sat800:00+8se41064100 0.0 1015181
03:00+9sse61574100 0.0 1014435
06:00+9se71675100 0.0 1012494
09:00+10sse81583100 0.9 1010646
12:00+12s71481100 2.3 1008966
15:00+11ssw71495100 5.1 1007826
18:00+10w5993100 3.9 1008553
21:00+9w61184100 4.5 1009700
9 may, sun
sun900:00+5wnw61286100 0.1 1012711
03:00+5wnw51085100 0.1 1013700
06:00+5wnw5984100 0.0 1015805
09:00+8nw5770100 0.0 10161075
12:00+9nnw6664100 0.1 10171411
15:00+8nnw6872100 0.1 10191026
18:00+7n5977100 0.0 1021724
21:00+6nnw367798 0.1 1023154
10 may, mon
mon1000:00+5n5128514 0.0 1024323
03:00+3n513900 0.0 1026304
06:00+5n5148467 0.0 1028468
09:00+10nne812621 0.0 10281062
12:00+13nne911503 0.0 10281342
15:00+14nne8105010 0.0 10271528
18:00+13ne7116371 0.0 1027956
21:00+10ne614675 0.0 1028447